Location: Unspecified
(0.0000°N, 0.0000°E)
Time: 03:58:58
(UTC+00:00)

Vanguard 1 - All Passes

Search period start: 29 May 2017 00:00
Search period end: 08 June 2017 00:00
Orbit: 654 x 3830 km, 34.2° (Epoch: 25 May)

Date Brightness Start Highest point End Pass type
(mag) Time Alt. Az. Time Alt. Az. Time Alt. Az.
29 May - 01:06:40 10° WNW 01:28:22 55° SW 01:48:58 10° SE visible
29 May - 03:41:54 10° WSW 03:57:32 22° SSW 04:09:50 10° SSE visible
29 May - 08:52:25 10° S 08:55:04 12° SSE 08:57:20 10° SE daylight
29 May - 11:11:42 10° SW 11:17:24 59° SE 11:21:46 10° ENE daylight
29 May - 13:36:06 10° NW 13:37:37 11° NNW 13:39:12 10° N daylight
29 May - 20:42:40 10° NNW 20:55:52 35° NE 21:15:02 10° E visible
29 May - 23:03:07 10° NW 23:22:15 86° NE 23:46:02 10° SE visible
30 May - 01:29:26 10° W 01:50:31 45° SW 02:09:59 10° SSE visible
30 May - 04:07:53 10° WSW 04:20:33 18° SSW 04:30:40 10° SSE visible
30 May - 09:11:58 10° SSW 09:17:04 17° SSE 09:20:54 10° ESE daylight
30 May - 11:32:56 10° WSW 11:38:29 72° NW 11:42:53 10° NE daylight
30 May - 18:47:29 10° N 18:51:47 12° NNE 18:56:52 10° NE visible
30 May - 21:03:14 10° NNW 21:17:31 45° NE 21:38:42 10° ESE visible
30 May - 23:24:33 10° WNW 23:44:04 80° SW 00:07:41 10° SE visible
31 May - 01:52:49 10° W 02:12:54 36° SSW 02:30:57 10° SSE visible
31 May - 04:34:16 10° SW 04:43:52 15° SSW 04:51:43 10° SSE visible
31 May - 07:12:16 10° S 07:13:54 10° S 07:15:27 10° SSE daylight
31 May - 09:32:21 10° SSW 09:38:51 26° SSE 09:43:19 10° E daylight
31 May - 11:54:37 10° WSW 11:59:29 36° NW 12:03:34 10° NNE daylight
31 May - 19:06:26 10° N 19:13:57 17° NE 19:24:03 10° ENE visible
31 May - 21:23:57 10° NW 21:39:06 58° NE 22:01:42 10° ESE visible
31 May - 23:46:17 10° WNW 00:06:00 66° SW 00:29:06 10° SE visible
01 Jun - 02:16:54 10° W 02:35:35 29° SSW 02:51:56 10° SSE visible
01 Jun - 05:00:13 10° SSW 05:07:20 13° S 05:13:19 10° SSE visible
01 Jun - 07:31:35 10° SSW 07:36:32 13° S 07:40:28 10° SE daylight
01 Jun - 09:53:07 10° SW 10:00:23 42° SSE 10:05:07 10° ENE daylight
01 Jun - 12:16:58 10° W 12:20:30 19° NW 12:23:43 10° N daylight
01 Jun - 19:26:18 10° NNW 19:35:48 24° NE 19:49:41 10° E visible
01 Jun - 21:44:50 10° NW 22:00:38 72° NE 22:24:11 10° ESE visible
02 Jun - 00:08:25 10° WNW 00:28:08 54° SW 00:50:22 10° SE visible
02 Jun - 02:41:47 10° WSW 02:58:38 24° SSW 03:13:02 10° SSE visible
02 Jun - 05:24:44 10° SSW 05:30:49 12° S 05:35:55 10° SSE visible
02 Jun - 07:51:55 10° SSW 07:58:52 18° SSE 08:03:52 10° ESE daylight
02 Jun - 10:14:15 10° SW 10:21:42 72° SE 10:26:28 10° ENE daylight
02 Jun - 19:46:30 10° NNW 19:57:22 33° NE 20:14:16 10° E visible
02 Jun - 22:05:56 10° NW 22:22:15 87° NE 22:46:15 10° SE visible
03 Jun - 00:31:00 10° W 00:50:29 44° SSW 01:11:33 10° SE visible
03 Jun - 03:07:17 10° WSW 03:22:01 20° SSW 03:34:23 10° SSE visible
03 Jun - 05:47:29 10° SSW 05:54:07 13° S 05:59:29 10° SSE daylight
03 Jun - 08:12:33 10° SSW 08:20:59 25° SSE 08:26:28 10° ESE daylight
03 Jun - 10:35:45 10° WSW 10:42:47 65° NW 10:47:26 10° NE daylight
03 Jun - 20:06:55 10° NNW 20:18:46 44° NE 20:38:01 10° ESE visible
03 Jun - 22:27:17 10° WNW 22:44:01 78° SW 23:08:00 10° SE visible
04 Jun - 00:54:11 10° W 01:13:07 36° SSW 01:32:44 10° SSE visible
04 Jun - 03:33:02 10° SW 03:45:41 17° SSW 03:56:09 10° SSE visible
04 Jun - 06:09:07 10° SSW 06:17:09 15° S 06:23:13 10° SE daylight
04 Jun - 08:33:25 10° SW 08:42:49 36° SSE 08:48:30 10° E daylight
04 Jun - 10:57:42 10° WSW 11:03:42 35° NW 11:08:01 10° NNE daylight
04 Jun - 18:11:34 10° N 18:16:37 14° NE 18:23:00 10° ENE visible
04 Jun - 20:27:32 10° NW 20:40:05 57° NE 21:01:06 10° ESE visible
04 Jun - 22:48:56 10° WNW 23:05:59 64° SW 23:29:32 10° SE visible
05 Jun - 01:18:00 10° WSW 01:36:05 29° SSW 01:53:59 10° SSE visible
05 Jun - 03:58:17 10° SW 04:09:29 16° S 04:18:35 10° SSE visible
05 Jun - 06:30:20 10° SSW 06:39:54 19° SSE 06:46:34 10° SE daylight
05 Jun - 08:54:32 10° SW 09:04:25 54° SSE 09:10:05 10° ENE daylight
05 Jun - 11:20:19 10° W 11:24:37 20° NW 11:28:05 10° N daylight
05 Jun - 18:30:49 10° N 18:38:12 21° NE 18:48:54 10° E visible
05 Jun - 20:48:20 10° NW 21:01:26 72° NE 21:23:39 10° ESE visible
05 Jun - 23:10:56 10° WNW 23:28:11 52° SSW 23:50:56 10° SE visible
06 Jun - 01:42:31 10° WSW 01:59:25 24° SSW 02:15:28 10° SSE visible
06 Jun - 04:22:26 10° SSW 04:33:13 16° S 04:41:43 10° SSE visible
06 Jun - 06:51:24 10° SSW 07:02:20 25° SSE 07:09:22 10° ESE daylight
06 Jun - 09:15:57 10° SW 09:25:45 83° SE 09:31:17 10° ENE daylight
06 Jun - 11:45:16 10° NW 11:45:38 10° NW 11:45:59 10° NW daylight
06 Jun - 18:50:46 10° NNW 18:59:31 30° NE 19:13:30 10° E visible
06 Jun - 21:09:22 10° NW 21:22:56 89° NE 21:45:47 10° SE visible
06 Jun - 23:33:24 10° W 23:50:39 42° SSW 00:12:16 10° SE visible
07 Jun - 02:07:32 10° WSW 02:23:07 21° SSW 02:37:18 10° SSE visible
07 Jun - 04:45:23 10° SSW 04:56:42 17° S 05:05:15 10° SE visible
07 Jun - 07:12:30 10° SW 07:24:32 33° SSE 07:31:40 10° E daylight
07 Jun - 09:37:41 10° WSW 09:46:50 62° NW 09:52:10 10° NE daylight
07 Jun - 19:11:02 10° NNW 19:20:41 41° NE 19:37:13 10° ESE visible
07 Jun - 21:30:39 10° WNW 21:44:38 74° SW 22:07:37 10° SE visible
